• Processing (Info)

  • MPEC 2020-B140 : 2020 BN6

    The following Minor Planet Electronic Circular may be linked-to from your own Web pages, but must not otherwise be redistributed electronically.

    A form allowing access to any MPEC is at the bottom of this page.


    Read MPEC 2020-B139 Read MPEC 2020-B141


    M.P.E.C. 2020-B140                             Issued 2020 January 24, 22:08 UT
    
         The Minor Planet Electronic Circulars contain information on unusual
             minor planets and routine data on comets.  They are published
        on behalf of Division F of the International Astronomical Union by the
              Minor Planet Center, Smithsonian Astrophysical Observatory,
                              Cambridge, MA 02138, U.S.A.
    
                 Prepared using the Tamkin Foundation Computer Network
    
                                  MPC@CFA.HARVARD.EDU
                URL https://www.minorplanetcenter.net/    ISSN 1523-6714
    
                                    2020 BN6                                 
    
    
    Observations:
         K20B06N  C2020 01 20.42253109 01 53.041+07 58 46.88         22.0 GVEB140F51
         K20B06N  C2020 01 20.43408409 01 56.124+07 58 37.33         22.5 GVEB140F51
         K20B06N  C2020 01 20.44566409 01 59.217+07 58 27.72         22.6 GVEB140F51
         K20B06N* C2020 01 22.41263509 11 38.388+07 30 45.20         22.45wUEB140F51
         K20B06N  C2020 01 22.42352309 11 41.406+07 30 35.97         21.69wUEB140F51
         K20B06N  C2020 01 22.43442209 11 44.493+07 30 26.87         21.88wUEB140F51
         K20B06N  C2020 01 23.46368609 16 55.333+07 15 49.54         22.2 GVEB140F51
         K20B06N  C2020 01 23.47612409 16 58.832+07 15 39.08         22.3 GVEB140F51
         K20B06N  C2020 01 24.44350309 21 57.554+07 01 50.70         22.34wUEB140F51
         K20B06N  C2020 01 24.45695909 22 01.407+07 01 39.13         22.41wUEB140F51
         K20B06N  C2020 01 24.48392909 22 09.140+07 01 16.30         21.96wUEB140F51
    
    Observer details:
    F51 Pan-STARRS 1, Haleakala.  Observers J. Bulger, K. Chambers, T. Lowe, A. 
       Schultz, M. Willman.  Measurers S. Chastel, M. Huber, Y. Ramanjooloo, R. 
       Wainscoat, R. Weryk, K. Chambers, T. de Boer, L. Denneau, J. Fairlamb, H. 
       Flewelling, C.-C. Lin, E. Magnier.  1.8-m Ritchey-Chretien + CCD.
    
    Orbital elements:
    2020 BN6                                                 Earth MOID = 0.1254 AU
    Epoch 2020 May 31.0 TT = JDT 2459000.5                  Pike
    M  27.65803              (2000.0)            P               Q
    n   0.24112158     Peri.  343.97689     -0.75692706     -0.65331988
    a   2.5564972      Node   155.21038     +0.60351322     -0.70782733
    e   0.5651717      Incl.    2.09336     +0.25066556     -0.26861423
    P   4.09           H   25.3           G   0.15           U   7
    Residuals in seconds of arc
    200120 F51  0.1-  0.0     200122 F51  0.3-  0.1-    200124 F51  0.1+  0.0
    200120 F51  0.0   0.0     200122 F51  0.6+  0.1-    200124 F51  0.0   0.1-
    200120 F51  0.1+  0.0     200123 F51  0.0   0.1-    200124 F51  0.0   0.1+
    200122 F51  0.2-  0.1+    200123 F51  0.1-  0.1+
    
    Ephemeris:
    2020 BN6                 a,e,i = 2.56, 0.57, 2                   q = 1.1116
    Date    TT    R. A. (2000) Decl.     Delta      r    Elong.  Phase     V
    2019 12 25    07 30 57.4 +13 12 06   0.2590  1.2283   158.6    17.0    23.7
    ...
    2020 01 09    08 14 06.0 +10 28 38   0.1882  1.1637   162.1    15.1    22.8
    ...
    2020 01 17    08 46 02.5 +08 46 05   0.1619  1.1389   162.2    15.3    22.5
    ...
    2020 01 23    09 14 33.6 +07 22 40   0.1477  1.1252   161.5    16.1    22.3
    2020 01 24    09 19 39.2 +07 08 26   0.1458  1.1234   161.3    16.3    22.2
    2020 01 25    09 24 49.8 +06 54 09   0.1441  1.1217   161.1    16.5    22.2
    ...
    2020 01 31    09 57 13.2 +05 28 54   0.1366  1.1142   159.7    17.8    22.1
    ...
    2020 02 08    10 41 04.5 +03 44 47   0.1345  1.1118   157.6    19.7    22.2
    ...
    2020 02 23    11 48 11.0 +01 41 17   0.1515  1.1302   156.9    20.1    22.5
    
    A. U. Tomatic                (C) Copyright 2020 MPC           M.P.E.C. 2020-B140
    


    Read MPEC 2020-B139 Read MPEC 2020-B141


    MPEC number:

    Enter an MPEC number in one of the following forms:

    • 1997-B01 (the full form)
    • J97B01 (the packed version of the full form)
    • B01 (the abbreviated form)